Miscellaneous Local Product
Issued by NWS Hastings, NE

Home | Current Version | Previous Version | Graphics & Text | Print | Product List | Glossary On
Versions: 1 2 3 4 5 6 7 8 9 10 11 12 13 14 15 16 17 18 19 20 21 22 23 24 25 26 27 28 29 30 31 32 33 34 35 36 37 38 39 40 41 42 43 44 45 46 47 48 49 50
289
AXUS43 KGID 061102
MISGRI

GID CWA HOURLY WEATHER ROUNDUP
NATIONAL WEATHER SERVICE HASTINGS NE
500 AM CST SAT FEB 06 2016

NOTE: "FAIR" INDICATES FEW OR NO CLOUDS BELOW 12,000 FEET WITH NO
SIGNIFICANT WEATHER AND/OR OBSTRUCTIONS TO VISIBILITY.

...SOUTH CENTRAL NEBRASKA...

CITY           SKY/WX    TMP DP  RH WIND       PRES   REMARKS
GRAND ISLAND   PTCLDY    16  13  88 SW7       30.23F WCI   6
HASTINGS       PTCLDY    21  17  84 SW6       30.23F WCI  13
ORD            CLOUDY    14  12  92 CALM      30.19F FOG
YORK           CLOUDY    18  18 100 W9        30.25F WCI   6
AURORA         PTCLDY    17  16  95 W7        30.24F WCI   7
LEXINGTON      CLOUDY    10   7  87 W7        30.23F FOG     WCI   0
HOLDREGE       CLOUDY    18  17  93 CALM      30.23F
HEBRON         CLEAR     20  20  98 CALM      30.28F

...NEBRASKA PANHANDLE...

CITY           SKY/WX    TMP DP  RH WIND       PRES   REMARKS
CHADRON        CLOUDY    19  13  77 SW9       30.15F WCI   8
ALLIANCE       CLOUDY    13   9  84 W10       30.14F WCI   0
SCOTTSBLUFF    CLEAR     17  11  77 NW9       30.18F WCI   6
SIDNEY         CLOUDY    17   9  70 W12       30.20F WCI   4

...WESTERN AND NORTH CENTRAL NEBRASKA...

CITY           SKY/WX    TMP DP  RH WIND       PRES   REMARKS
VALENTINE      CLOUDY    21  16  81 W9        30.12F WCI  11
AINSWORTH      CLEAR     23  18  81 SW9       30.14S WCI  13
ONEILL         CLOUDY    21  18  89 S7        30.15F WCI  12
BROKEN BOW     CLOUDY    20  16  84 CALM      30.18F
IMPERIAL       CLOUDY    18   9  68 W10       30.22F WCI   6
NORTH PLATTE   CLOUDY    12   7  80 NW5       30.22S WCI   4
MCCOOK         CLOUDY    15   9  76 W13       30.26F WCI   1

...EASTERN NEBRASKA...

CITY           SKY/WX    TMP DP  RH WIND       PRES   REMARKS
NORFOLK        CLOUDY    16  13  88 CALM      30.20F
SO SIOUX CITY  FOG       17  13  84 CALM      30.22F VSB 1/4
TEKAMAH        PTCLDY    26  24  92 SW3       30.25S
COLUMBUS         N/A     14   3  62 CALM      30.23F VSB 1/2
ALBION         CLOUDY    23  21  89 W5        30.20F WCI  17
OMAHA EPPLEY   CLOUDY    31  28  89 NW9       30.26R WCI  23
OFFUTT AFB     CLOUDY    30  30  99 W2        30.25R
MILLARD        MOCLDY    30  28  91 CALM      30.25F
LINCOLN        CLEAR     22  19  89 CALM      30.27F FOG
NEBRASKA CITY  CLOUDY    32  32 100 NW6       30.26S WCI  26
BEATRICE       CLEAR     28  28  97 W8        30.27S WCI  20
FALLS CITY     CLEAR     27  25  92 W8        30.26S WCI  19

...NORTHERN KANSAS...

CITY           SKY/WX    TMP DP  RH WIND       PRES   REMARKS
GOODLAND       CLOUDY    19   8  62 W14       30.25F WCI   6
HILL CITY      CLOUDY    17  12  80 W6        30.29F WCI   9
NORTON         SUNNY     16   9  73 W14       30.26F WCI   1
PHILLIPSBURG   CLOUDY    16  16 100 CALM      30.29S
BELOIT         CLEAR     23  21  93 W3        30.29S
HAYS           CLEAR     18   7  62 W7        30.29S WCI   8
RUSSELL        CLEAR     22  19  89 W6        30.29S WCI  14
CONCORDIA      CLEAR     25  22  88 W6        30.28F WCI  18
SALINA         CLEAR     28  23  81 CALM      30.31S
TOPEKA         CLEAR     28  23  81 W3        30.28R



USA.gov is the U.S. government's official web portal to all federal, state and local government web resources and services.